EW8409 Weather Reports


Display with metric or nautical units.
time (UTC)temp
F
wind
direction
speed
MPH
gust
MPH
rain 1hr
in
rain 24hr
in
rain mn
in
humidity
%
barometer
mb
20260505234545 48 4 0.0 0.0 0.07 0.12 0.12 91 1008.4
20260505233042 48 356 0.0 0.0 0.08 0.11 0.11 90 1008.3
20260505231554 49 45 0.0 0.0 0.07 0.08 0.08 89 1008.4
20260505230036 49 359 0.0 0.0 0.05 0.06 0.06 87 1008.1
20260505224533 50 4 0.0 0.0 0.04 0.05 0.05 84 1008.0
20260505223028 53 245 0.0 4.0 0.02 0.03 0.03 75 1008.0
20260505221523 55 345 0.0 0.0 0.00 0.01 0.01 68 1007.7
20260505220023 57 28 0.0 7.0 0.00 0.01 0.01 65 1007.1
20260505214517 60 67 0.0 1.0 0.00 0.01 0.01 66 1006.3
20260505213017 64 136 0.0 5.0 0.00 0.01 0.01 65 1005.5
20260505211512 65 203 0.0 2.0 0.00 0.01 0.01 64 1004.8
20260505210013 66 269 0.0 14.0 0.00 0.01 0.01 62 1004.8
20260505204511 66 208 0.0 4.0 0.00 0.01 0.01 61 1004.5
20260505203009 67 63 0.0 15.0 0.00 0.01 0.01 61 1004.4
20260505201512 68 214 0.0 7.0 0.00 0.01 0.01 60 1004.3
20260505200007 68 101 0.0 7.0 0.00 0.01 0.01 61 1004.3
20260505194503 68 193 0.0 5.0 0.00 0.01 0.01 60 1004.5
20260505193001 69 175 0.0 7.0 0.00 0.01 0.01 58 1004.1
20260505191501 70 240 0.0 6.0 0.00 0.01 0.01 57 1004.2
20260505190100 70 345 1.0 9.0 0.00 0.01 0.01 56 1004.2
20260505190001 70 207 0.0 9.0 0.00 0.01 0.01 57 1004.2
20260505184557 71 330 0.0 10.0 0.00 0.01 0.01 56 1003.9
20260505183057 72 283 0.0 3.0 0.00 0.01 0.01 54 1003.8
20260505181556 70 84 0.0 7.0 0.00 0.01 0.01 55 1003.6
20260505174555 70 153 1.0 14.0 0.00 0.01 0.01 54 1003.8
20260505173058 70 359 1.0 8.0 0.00 0.01 0.01 56 1003.5
20260505171553 69 243 0.0 10.0 0.00 0.01 0.01 60 1003.4
20260505170108 66 204 1.0 11.0 0.00 0.01 0.01 62 1003.4
20260505164554 67 207 0.0 8.0 0.00 0.01 0.01 60 1003.4
20260505163050 69 110 0.0 5.0 0.00 0.01 0.01 56 1003.4
20260505161552 69 152 0.0 5.0 0.00 0.01 0.01 57 1003.3
20260505153042 72 241 1.0 9.0 0.00 0.01 0.01 53 1002.0
20260505151554 71 119 0.0 10.0 0.00 0.01 0.01 55 1002.0
20260505124525 68 180 0.0 5.0 0.00 0.01 0.01 60 1001.8
20260505123024 68 150 0.0 6.0 0.00 0.01 0.01 61 1001.5
20260505121522 67 339 1.0 9.0 0.00 0.01 0.01 62 1001.4
20260505120020 66 131 0.0 4.0 0.00 0.01 0.01 64 1001.5
20260505114518 66 165 0.0 4.0 0.00 0.01 0.01 64 1001.5
20260505113017 65 255 0.0 5.0 0.00 0.01 0.01 65 1001.4
20260505111513 65 182 0.0 5.0 0.00 0.01 0.01 66 1001.3
20260505101508 62 202 0.0 5.0 0.00 0.01 0.01 73 1000.8
20260505100009 61 156 0.0 3.0 0.00 0.01 0.01 75 1000.6
20260505094506 60 199 0.0 0.0 0.00 0.01 0.01 78 1000.6
20260505093006 59 194 0.0 0.0 0.00 0.01 0.01 82 1000.7
20260505091503 57 165 0.0 0.0 0.00 0.01 0.01 89 1000.8
20260505090001 56 203 0.0 0.0 0.00 0.01 0.01 91 1001.0
20260505084559 56 178 0.0 0.0 0.00 0.01 0.01 92 1001.2
20260505083102 57 159 0.0 0.0 0.00 0.01 0.01 91 1001.3
20260505081556 57 159 0.0 0.0 0.00 0.01 0.01 90 1001.4
20260505080054 58 157 0.0 0.0 0.01 0.01 0.01 88 1001.6
20260505074548 59 184 0.0 0.0 0.01 0.01 0.01 86 1001.8
20260505073046 59 207 0.0 0.0 0.01 0.01 0.01 85 1002.0
20260505071541 61 178 0.0 2.0 0.01 0.01 0.01 81 1001.8
20260505070042 63 198 0.0 7.0 0.00 0.00 0.00 71 1002.0
20260505064535 63 206 0.0 3.0 0.00 0.00 0.00 67 1002.1
20260505063039 63 219 0.0 4.0 0.00 0.00 0.00 67 1001.9
20260505061539 63 267 0.0 0.0 0.00 0.00 0.00 67 1001.8
20260505060034 63 184 0.0 8.0 0.00 0.00 0.00 66 1001.8
20260505054538 63 179 0.0 0.0 0.00 0.00 0.00 66 1001.8
20260505053039 64 193 0.0 1.0 0.00 0.00 0.00 65 1001.9
20260505051531 64 210 0.0 3.0 0.00 0.00 0.00 64 1002.0
20260505041523 64 88 0.0 1.0 0.00 0.00 0.00 59 1002.4
20260505040020 64 176 0.0 0.0 0.00 0.00 0.00 58 1002.2
20260505034519 64 195 0.0 0.0 0.00 0.00 0.00 57 1002.4
20260505033021 64 197 0.0 6.0 0.00 0.00 0.00 53 1002.5
20260505031518 58 195 0.0 0.0 0.00 0.00 0.00 62 1002.5
20260505030025 57 170 0.0 0.0 0.00 0.00 0.00 66 1002.2
20260505024517 57 170 0.0 0.0 0.00 0.00 0.00 65 1002.2
20260505023016 58 170 0.0 0.0 0.00 0.00 0.00 60 1002.1
20260505021515 59 170 0.0 0.0 0.00 0.00 0.00 59 1002.4
20260505020014 60 169 0.0 0.0 0.00 0.00 0.00 56 1002.4
20260505014515 60 169 0.0 0.0 0.00 0.00 0.00 55 1002.6
20260505013013 61 169 0.0 0.0 0.00 0.00 0.00 53 1002.5
20260505011518 62 169 0.0 0.0 0.00 0.00 0.00 51 1002.4
20260505010012 64 169 0.0 0.0 0.00 0.00 0.00 48 1002.2
20260505004523 65 169 0.0 0.0 0.00 0.00 0.00 46 1002.2
20260505003011 67 169 0.0 0.0 0.00 0.00 0.00 44 1002.2
20260505001511 69 169 0.0 0.0 0.00 0.00 0.00 39 1002.2
20260505000017 70 165 0.0 0.0 0.00 0.00 0.00 37 1002.2